Location: Centerville
(32.8776°N, 96.6203°W)
Time: 13:27:20
(UTC+00:00)

COSMOS 2428 - Pass Details

Date: 17 June 2021
Orbit: 845 x 858 km, 70.9° (Epoch: 31 July)

Event Time Altitude Azimuth Distance (km) Brightness Sun altitude
Exits shadow 04:48:50 77° 287° (WNW) 879 2.7 -29.0°
Maximum altitude 04:48:51 77° 291° (WNW) 879 2.7 -29.0°
Drops below altitude 10° 04:54:36 10° 17° (NNE) 2,495 5.7 -29.5°
Sets 04:57:04 0° 19° (NNE) 3,435 6.5 -29.8°
